Regional Weather Roundup
Issued by NWS

Home | Current Version | Previous Version | Graphics & Text | Print | Product List | Glossary On
Versions: 1 2 3 4 5 6 7 8 9 10 11 12 13 14 15 16 17 18 19 20 21 22 23 24 25 26 27 28 29 30 31 32 33 34 35 36 37 38 39 40 41 42 43 44 45 46 47 48 49 50
000
ASUS44 KMEG 282000
RWRTN
TENNESSEE HOURLY STATE WEATHER ROUNDUP
NATIONAL WEATHER SERVICE MEMPHIS TN
300 PM CDT THU AUG 28 2014

TNZ002-004-019-021-049-052-054-088>092-282100-
WEST TENNESSEE

CITY           SKY/WX    TMP DP  RH WIND       PRES   REMARKS
MEMPHIS INTL   MOSUNNY   94  62  34 VRB6G16   29.98F HX  94
NWS MEMPHIS      N/A     96 N/A N/A MISG        N/A
JACKSON        SUNNY     91  70  49 SE6       29.98F HX  96
DYERSBURG      MOSUNNY   84  66  54 CALM      29.98F
UNION CITY     PTSUNNY   90  79  70 W8        29.96F HX 105
PARIS          MOSUNNY   90  72  55 CALM      29.99F HX  96
LEXINGTON      MOSUNNY   91  66  43 E6        29.98F HX  94
SAVANNAH       SUNNY     93  68  43 VRB3      29.99F HX  97
$$

TNZ008-025-027-028-033-062-065-066-282100-
NORTH MIDDLE TENNESSEE

CITY           SKY/WX    TMP DP  RH WIND       PRES   REMARKS
NASHVILLE      MOSUNNY   93  70  46 E9        29.99F HX  99
CLARKSVILLE    MOSUNNY   91  71  51 MISG      29.98F THUNDER HX  97
COOKEVILLE     PTSUNNY   81  75  83 N8        30.03S
CROSSVILLE     MOSUNNY   86  66  51 CALM      30.07F
$$

TNZ061-075-076-078-094-096-097-282100-
SOUTH MIDDLE TENNESSEE

CITY           SKY/WX    TMP DP  RH WIND       PRES   REMARKS
FAYETTEVILLE   MOSUNNY   88  66  48 S6        30.02S HX  90
TULLAHOMA      SUNNY     90  66  45 S3        30.03F HX  92
WINCHESTER     PTSUNNY   90  68  48 SE9       30.02F HX  93
SHELBYVILLE    SUNNY     91  70  49 CALM      30.01F HX  97
$$

TNZ017-018-042-046-047-282100-
NORTHEAST TENNESSEE

CITY           SKY/WX    TMP DP  RH WIND       PRES   REMARKS
TRI CITIES     MOSUNNY   88  65  46 VRB3      30.05F HX  90
ELIZABETHTON   PTCLDY    88  66  48 VRB3      30.05S HX  90
$$

TNZ012-013-036-069-073-074-282100-
CENTRAL EAST TENNESSEE

CITY           SKY/WX    TMP DP  RH WIND       PRES   REMARKS
KNOXVILLE      MOSUNNY   87  67  51 MISG      30.00F HX  90
OAK RIDGE      MOSUNNY   90  68  48 CALM      30.02F HX  94
GATLINBURG     CLEAR     91  64  40 VRB6      30.00F HX  93
$$

TNZ083-085-099-282100-
SOUTHEAST TENNESSEE

CITY           SKY/WX    TMP DP  RH WIND       PRES   REMARKS
CHATTANOOGA    MOSUNNY   92  65  40 N6        30.00F HX  94
$$

SKY/WX REPORTED AS FAIR MEANS FEW OR NO CLOUDS BELOW
12 THOUSAND FEET.



USA.gov is the U.S. government's official web portal to all federal, state and local government web resources and services.